Starlink 5384

operational
NORAD ID: 54836 Int'l Des: 2022-177 Owner: SPXS Country: US Constellation: starlink
LEOCIRCULAR

Über Starlink 5384

Beschreibung wird geladen...

Live-Position

3D-Globus wird geladen...

Nächste Überflüge

Höhenverlauf

Altitude vs Time

uPlot chart will show altitude changes over time

Zweizeiliger Elementsatz

1 54836U 22177S 25350.96454838 .00000219 00000-0 31294-4 0 9992
2 54836 43.0020 222.6340 0001067 268.7878 91.2842 15.02541433164528
Epoch: 16. Dez. 2025 • Age: 10 hours

Aktueller Status

Höhe 558.4 km
Geschwindigkeit 7.59 km/s
Subsatellitenpunkt 13.56°N, 157.68°E
Startdatum 28. Dez. 2022
Alter 2.9 years
Typ internet

Technische Details

Klassifizierung Payload
Masse 305.00 kg
Trockenmasse 290.00 kg
Gesamtmasse 305.00 kg
Länge 0.20 m
Durchmesser 2.80 m
Spannweite 9.00 m
Form Box + pan
Hersteller SPXS
Bus-Typ Starlink
Phasenstatus In Orbit
Besitzer/Staat SPXS/US

Große Konstellationen

Loading constellations...